�������r�C�����j�^�v���󋵏��
Date,Time,5�C6���@���p�r�C��,����,����(m/s)
2022/02/19,00:00,4.1,�k��,5.4
2022/02/19,00:10,4.1,�k�k��,4.5
2022/02/19,00:20,4.1,�k�k��,3.7
2022/02/19,00:30,4.0,�k�k��,3.8
2022/02/19,00:40,4.1,�k�k��,3.8
2022/02/19,00:50,4.1,�k��,3.5
2022/02/19,01:00,4.1,�k��,3.5
2022/02/19,01:10,4.2,�k��,1.7
2022/02/19,01:20,4.1,�k�k��,3.3
2022/02/19,01:30,4.0,�k,2.9
2022/02/19,01:40,4.1,�k�k��,3.4
2022/02/19,01:50,4.1,�k��,5.0
2022/02/19,02:00,4.2,�k�k��,3.9
2022/02/19,02:10,4.2,�k��,2.3
2022/02/19,02:20,4.0,�k�k��,2.5
2022/02/19,02:30,4.2,�k�k��,2.9
2022/02/19,02:40,3.9,�k,2.6
2022/02/19,02:50,4.0,�k,2.8
2022/02/19,03:00,4.0,�k�k��,2.6
2022/02/19,03:10,4.2,�k��,2.0
2022/02/19,03:20,4.1,�k��,2.0
2022/02/19,03:30,4.0,�k�k��,1.7
2022/02/19,03:40,4.2,�k,1.7
2022/02/19,03:50,4.0,�k,1.7
2022/02/19,04:00,4.2,�k,1.7
2022/02/19,04:10,4.3,�k�k��,1.7
2022/02/19,04:20,4.2,�k,1.5
2022/02/19,04:30,4.2,-,CALM
2022/02/19,04:40,4.1,-,CALM
2022/02/19,04:50,4.2,��,0.6
2022/02/19,05:00,4.1,�k��,0.6
2022/02/19,05:10,4.1,���쐼,1.2
2022/02/19,05:20,4.1,�쐼,1.1
2022/02/19,05:30,4.0,��쓌,1.1
2022/02/19,05:40,4.1,��쓌,1.7
2022/02/19,05:50,3.9,��쓌,2.3
2022/02/19,06:00,4.1,��쓌,2.8
2022/02/19,06:10,3.9,��,1.7
2022/02/19,06:20,3.9,��,2.8
2022/02/19,06:30,4.1,��,3.9
2022/02/19,06:40,4.1,��,4.2
2022/02/19,06:50,4.3,��,4.1
2022/02/19,07:00,4.3,��쓌,4.3
2022/02/19,07:10,4.0,��쓌,3.4
2022/02/19,07:20,4.1,��,1.5
2022/02/19,07:30,4.1,��,1.9
2022/02/19,07:40,4.0,��쓌,2.2
2022/02/19,07:50,4.0,-,CALM
2022/02/19,08:00,4.0,��,1.2
2022/02/19,08:10,4.0,��쐼,2.2
2022/02/19,08:20,4.1,��쐼,2.6
2022/02/19,08:30,4.1,��쐼,1.9
2022/02/19,08:40,4.1,��쐼,2.0
2022/02/19,08:50,4.2,��쐼,1.9
2022/02/19,09:00,4.0,��,1.9
2022/02/19,09:10,4.0,��쓌,1.7
2022/02/19,09:20,3.8,��쓌,1.5
2022/02/19,09:30,4.2,�쓌,1.5
2022/02/19,09:40,4.0,�쓌,1.4
2022/02/19,09:50,4.2,���쓌,2.3
2022/02/19,10:00,4.0,�쓌,1.7
2022/02/19,10:10,4.2,�쓌,2.6
2022/02/19,10:20,4.1,�쓌,2.9
2022/02/19,10:30,4.2,�쓌,3.1
2022/02/19,10:40,4.1,���쓌,3.4
2022/02/19,10:50,4.1,�쓌,3.6
2022/02/19,11:00,4.2,�쓌,4.1
2022/02/19,11:10,4.0,�쓌,5.2
2022/02/19,11:20,4.0,�쓌,5.0
2022/02/19,11:30,4.2,�쓌,5.6
2022/02/19,11:40,4.2,��쓌,4.9
2022/02/19,11:50,4.1,��쓌,3.8
2022/02/19,12:00,4.0,��쓌,4.7
2022/02/19,12:10,4.1,��쓌,5.0
2022/02/19,12:20,4.1,��쓌,5.0
2022/02/19,12:30,4.0,��쓌,5.1
2022/02/19,12:40,4.1,��쓌,4.1
2022/02/19,12:50,4.1,�쓌,4.2
2022/02/19,13:00,3.9,�쓌,3.7
2022/02/19,13:10,4.0,��쓌,3.2
2022/02/19,13:20,4.0,�쓌,3.6
2022/02/19,13:30,4.1,�쓌,3.6
2022/02/19,13:40,4.0,��쓌,3.9
2022/02/19,13:50,4.2,�쓌,2.9
2022/02/19,14:00,4.1,�쓌,3.2
2022/02/19,14:10,4.1,�쓌,3.6
2022/02/19,14:20,4.0,�쓌,3.5
2022/02/19,14:30,4.2,���쓌,3.2
2022/02/19,14:40,4.0,���쓌,3.5
2022/02/19,14:50,4.1,�쓌,4.0
2022/02/19,15:00,4.1,���쓌,2.8
2022/02/19,15:10,4.2,�쓌,2.9
2022/02/19,15:20,3.9,���쓌,3.6
2022/02/19,15:30,4.0,��,2.0
2022/02/19,15:40,4.1,���쓌,2.5
2022/02/19,15:50,3.9,���쓌,2.6
2022/02/19,16:00,4.1,��,2.0
2022/02/19,16:10,4.1,��,2.3
2022/02/19,16:20,4.0,��,1.7
2022/02/19,16:30,4.1,�k��,0.9
2022/02/19,16:40,4.3,�k��,0.8
2022/02/19,16:50,4.0,�k�k��,0.9
2022/02/19,17:00,3.9,�k�k��,0.9
2022/02/19,17:10,4.0,��,1.2
2022/02/19,17:20,4.1,���k��,1.4
2022/02/19,17:30,4.1,�k�k��,0.9
2022/02/19,17:40,4.2,�k�k��,1.2
2022/02/19,17:50,4.0,�k�k��,0.9
2022/02/19,18:00,3.9,�k,1.2
2022/02/19,18:10,3.8,�k�k��,1.7
2022/02/19,18:20,4.1,�k�k��,1.9
2022/02/19,18:30,4.1,�k�k��,2.0
2022/02/19,18:40,3.9,�k�k��,2.6
2022/02/19,18:50,4.0,�k��,3.1
2022/02/19,19:00,4.0,�k��,3.0
2022/02/19,19:10,4.1,�k��,2.6
2022/02/19,19:20,3.9,�k��,3.0
2022/02/19,19:30,4.0,�k��,2.8
2022/02/19,19:40,4.1,�k��,2.8
2022/02/19,19:50,4.1,���k��,3.6
2022/02/19,20:00,4.0,���k��,4.1
2022/02/19,20:10,4.1,�k��,3.7
2022/02/19,20:20,4.1,�k�k��,2.9
2022/02/19,20:30,4.0,�k��,3.3
2022/02/19,20:40,4.2,�k��,2.9
2022/02/19,20:50,4.0,�k��,2.8
2022/02/19,21:00,4.0,�k��,4.1
2022/02/19,21:10,4.1,�k��,4.2
2022/02/19,21:20,4.2,���k��,4.6
2022/02/19,21:30,3.9,�k��,4.5
2022/02/19,21:40,3.9,�k��,3.9
2022/02/19,21:50,4.0,�k��,4.4
2022/02/19,22:00,4.2,�k��,5.1
2022/02/19,22:10,3.9,�k�k��,4.7
2022/02/19,22:20,4.0,�k��,5.2
2022/02/19,22:30,4.1,�k�k��,5.7
2022/02/19,22:40,4.2,�k�k��,6.1
2022/02/19,22:50,4.2,�k�k��,5.6
2022/02/19,23:00,4.2,�k,5.5
2022/02/19,23:10,4.2,-,CALM
2022/02/19,23:20,4.1,�k,6.6
2022/02/19,23:30,4.3,�k,6.7
2022/02/19,23:40,4.2,�k,7.2
2022/02/19,23:50,4.1,�k�k��,6.2
